Tracking 19903 objects as of 16-Oct-2019
HD Live streaming from Space Station
objects crossing your sky now

SL-12 R/B(2)

Track SL-12 R/B(2) now!


NORAD ID: 25743
Int'l Code: 1999-027D
Perigee: 7,060.7 km
Apogee: 35,691.2 km
Inclination: 16.5 °
Period: 766.6 minutes
Semi major axis: 27746 km
RCS: 23.7189 m2 (large)
Launch date: May 20, 1999
Source: Commonwealth of Independent States (former USSR) (CIS)
Launch site: TYURATAM MISSILE AND SPACE COMPLEX (TTMTR)

Note: This is a ROCKET BODY
aabbcc
Your satellite tracking list
Your tracking list is empty




NASA's NSSDC Master Catalog

Two Line Element Set (TLE):
1 25743U 99027D   19287.49479228 -.00000111 +00000-0 +00000-0 0  9994
2 25743 016.5283 135.8755 5159223 058.9430 122.6032 01.87836799140074
Source of the keplerian elements: AFSPC